Change the Weather History Date:

Thursday, October 17, 2013

  Actual Average Record
Temperature  
Mean Temperature 62 °F -  
Max Temperature 82 °F 74 °F 99 °F (2012)
Min Temperature 42 °F 48 °F 39 °F (1998)
Degree Days  
Heating Degree Days 4    
Growing Degree Days 12 (Base 50)    
Moisture  
Dew Point 36 °F    
Average Humidity 46    
Maximum Humidity 80    
Minimum Humidity 14    
Precipitation  
Precipitation 0.00 in - - ()
Sea Level Pressure  
Sea Level Pressure 29.98 in    
Wind  
Wind Speed 2 mph (SW)    
Max Wind Speed 13 mph    
Max Gust Speed 18 mph    
Visibility 10 miles    
Events      
Averages and records for this station are not official NWS values.
T = Trace of Precipitation, MM = Missing Value Source: NWS Daily Summary

Daily Weather History Graph

Daily Weather History Graph

Search for Another Location

Airport or City:

Trip Planner

Search our weather history database for the weather conditions in past years. The results will help you decide how hot, cold, wet, or windy it might be!

Date:

Astronomy

Oct. 17, 2013 Rise Set
Actual Time 6:55 AM PDT 6:13 PM PDT
Civil Twilight 6:30 AM PDT 6:38 PM PDT
Nautical Twilight 6:01 AM PDT 7:06 PM PDT
Astronomical Twilight 5:33 AM PDT 7:35 PM PDT
Moon 5:28 PM PDT (10/17) 5:35 AM PDT (10/17)
Length of Visible Light 12h 07m
Length of Day
11h 17m
Waxing Gibbous, 98% of the Moon is Illuminated
Oct 17
Waxing Gibbous
Oct 18
Full
Oct 26
Last Quarter
Nov 3
New
Nov 9
First Quarter

Hourly Weather History & Observations

Time (PDT) Temp. Dew Point Humidity Pressure Visibility Wind Dir Wind Speed Gust Speed Precip Events Conditions
12:54 AM 48.0 °F 28.9 °F 48% 30.01 in 10.0 mi Calm Calm - N/A   Clear
1:54 AM 45.0 °F 28.9 °F 53% 30.02 in 10.0 mi Calm Calm - N/A   Clear
2:54 AM 44.1 °F 30.9 °F 60% 30.01 in 10.0 mi Calm Calm - N/A   Clear
3:54 AM 45.0 °F 30.0 °F 56% 30.00 in 10.0 mi Calm Calm - N/A   Clear
4:54 AM 43.0 °F 30.0 °F 60% 30.01 in 10.0 mi Calm Calm - N/A   Clear
5:54 AM 44.1 °F 30.0 °F 58% 30.02 in 10.0 mi Calm Calm - N/A   Clear
6:54 AM 42.1 °F 30.9 °F 65% 30.02 in 10.0 mi Calm Calm - N/A   Clear
7:54 AM 48.9 °F 34.0 °F 56% 30.03 in 10.0 mi Calm Calm - N/A   Clear
8:54 AM 59.0 °F 30.9 °F 35% 30.04 in 10.0 mi Calm Calm - N/A   Clear
9:54 AM 70.0 °F 30.0 °F 23% 30.03 in 10.0 mi Calm Calm - N/A   Clear
10:54 AM 79.0 °F 27.0 °F 15% 30.01 in 10.0 mi Calm Calm - N/A   Clear
11:54 AM 81.0 °F 27.0 °F 14% 29.99 in 10.0 mi Variable 5.8 mph - N/A   Clear
12:54 PM 81.0 °F 27.0 °F 14% 29.97 in 10.0 mi SSW 10.4 mph - N/A   Clear
1:54 PM 80.1 °F 30.0 °F 16% 29.94 in 10.0 mi SW 12.7 mph 17.3 mph N/A   Clear
2:54 PM 78.1 °F 30.9 °F 18% 29.93 in 10.0 mi SW 11.5 mph 18.4 mph N/A   Clear
3:54 PM 78.1 °F 34.0 °F 20% 29.92 in 10.0 mi WSW 9.2 mph - N/A   Clear
4:54 PM 75.0 °F 39.0 °F 27% 29.92 in 10.0 mi SSW 4.6 mph - N/A   Clear
5:54 PM 71.1 °F 48.0 °F 44% 29.92 in 10.0 mi South 6.9 mph - N/A   Partly Cloudy
6:54 PM 66.9 °F 55.0 °F 66% 29.92 in 10.0 mi SSW 4.6 mph - N/A   Clear
7:54 PM 63.0 °F 53.1 °F 70% 29.94 in 10.0 mi NNE 3.5 mph - N/A   Clear
8:54 PM 60.1 °F 53.1 °F 78% 29.95 in 10.0 mi North 3.5 mph - N/A   Clear
9:54 PM 55.0 °F 48.9 °F 80% 29.96 in 10.0 mi Calm Calm - N/A   Clear
10:54 PM 55.9 °F 44.1 °F 64% 29.97 in 10.0 mi NE 3.5 mph - N/A   Clear
11:54 PM 54.0 °F 42.1 °F 64% 29.97 in 10.0 mi NE 3.5 mph - N/A   Clear